Regional Weather Roundup
Issued by NWS

Home | Current Version | Previous Version | Text Only | Print | Product List | Glossary Off
Versions: 1 2 3 4 5 6 7 8 9 10 11 12 13 14 15 16 17 18 19 20 21 22 23 24 25 26 27 28 29 30 31 32 33 34 35 36 37 38 39 40 41 42 43 44 45 46 47 48 49 50

413
ASUS43 KFSD 230310
RWRSD

WEATHER ROUNDUP FOR SOUTH DAKOTA
NATIONAL WEATHER SERVICE SIOUX FALLS SD
1000 PM CDT MON MAY 22 2017

NOTE: "FAIR" INDICATES FEW OR NO CLOUDS BELOW 12,000 FEET WITH NO
SIGNIFICANT WEATHER AND/OR OBSTRUCTIONS TO VISIBILITY.


SDZ001>005-009-010-012>017-230400-
NORTHWEST AND NORTH CENTRAL SOUTH DAKOTA

CITY           SKY/WX    TMP DP  RH WIND       PRES   REMARKS
BUFFALO          N/A     50  40  68 NW12      30.05R
FAITH            N/A     48  37  65 NW10      30.07R
MOBRIDGE       MOCLDY    52  41  66 CALM      29.98S
$$

SDZ012>016-024>037-041>051-057-063-072>074-230400-
SOUTHWEST AND SOUTH CENTRAL SOUTH DAKOTA

CITY           SKY/WX    TMP DP  RH WIND       PRES   REMARKS
RAPID CTY ARPT CLOUDY    47  41  80 NW9       30.12R
PIERRE         CLOUDY    53  38  56 N9        30.01R
CUSTER         LGT RAIN  37  33  85 N7        30.17R
ELLSWORTH AFB  PTCLDY    47  43  84 NW10      30.12R
PHILIP         CLOUDY    50  45  83 NW6       30.06R
PINE RIDGE     CLEAR     43  41  93 CALM      30.12R
SPEARFISH      FAIR      43  39  87 W7        30.16R
WINNER         CLOUDY    52  45  77 NW9       30.02R
$$

SDZ004>011-016>023-039-040-230400-
NORTHEAST SOUTH DAKOTA

CITY           SKY/WX    TMP DP  RH WIND       PRES   REMARKS
ABERDEEN       LGT RAIN  49  43  80 NW7       29.96S
WATERTOWN      CLOUDY    50  39  66 N16       29.92R
BROOKINGS      CLOUDY    49  47  93 NW5       29.92R
SISSETON         N/A     50  45  83 NW14      29.90S
$$

SDZ017-020-022-023-036>040-048>070-230400-
SOUTHEAST SOUTH DAKOTA

CITY           SKY/WX    TMP DP  RH WIND       PRES   REMARKS
SIOUX FALLS    CLOUDY    51  46  83 W3        29.93R
HURON          CLOUDY    52  44  74 N9        29.96R
CHAMBERLAIN    CLOUDY    57  42  56 NW8       30.00R
MITCHELL       CLOUDY    53  45  74 W8        29.96R
YANKTON        CLEAR     47  44  90 NW7       29.96R
$$

ABBREVIATIONS USED IN REMARKS
   TC - TEMPERATURE IN CELSIUS
  WCI - WIND CHILL INDEX
   HX - HEAT INDEX
  VSB - VISIBILITY





USA.gov is the U.S. government's official web portal to all federal, state and local government web resources and services.